Date String (YYYY-MM-DD hh:mm:ss) UTC,Instrument flags,Ambient pressure (hPa),Sample flow (lpm),Bypass flow (lpm),Sample temperature (°C),Ambient temperature (°C),ASC tube jacket temperature (°C),LED temperature (°C),Box temperature (°C),Sample RH (%),Span deviation,Mass concentration (μg/m³),Mass concentration (μg/m³),Mass concentration (μg/m³)
DateTimeUTC,F1_M11,P_M11,Q1_M11,Q2_M11,T1_M11,T2_M11,T3_M11,T4_M11,T5_M11,U1_M11,ZSPAN_M11,X0_M11,X2_M11,X1_M11
2022-03-04 05:00:00,,0822.5,5.00,0.00,29.9,29.0,00.0,38.9,31.6,11.9,0002.5,0026.51,0012.96,0010.93
2022-03-04 05:01:00,,0822.5,5.00,0.00,29.9,29.0,00.0,38.8,31.6,11.9,0002.1,0027.57,0013.03,0010.97
2022-03-04 05:02:00,,0822.5,4.99,0.00,29.9,29.0,00.0,38.8,31.6,11.9,0002.0,0028.87,0013.15,0011.03
2022-03-04 05:03:00,,0822.5,5.01,0.00,29.9,29.0,00.0,38.9,31.6,11.9,0002.2,0029.67,0013.25,0011.06
2022-03-04 05:04:00,,0822.5,5.00,0.00,29.9,29.0,00.0,38.8,31.6,11.9,0002.1,0029.45,0013.30,0011.10
2022-03-04 05:05:00,,0822.5,5.00,0.00,29.8,29.0,00.0,38.8,31.6,11.9,0001.4,0029.40,0013.31,0011.14
2022-03-04 05:06:00,,0822.5,5.00,0.00,29.8,29.0,00.0,38.8,31.6,11.9,0001.3,0028.54,0013.34,0011.16
2022-03-04 05:07:00,,0822.5,5.00,0.00,29.9,29.0,00.0,38.8,31.6,11.9,0001.0,0029.97,0013.42,0011.18
2022-03-04 05:08:00,,0822.5,4.98,0.00,29.8,29.0,00.0,38.8,31.6,11.9,0001.1,0029.73,0013.45,0011.20
2022-03-04 05:09:00,,0822.5,5.02,0.00,29.9,29.0,00.0,38.8,31.6,11.9,0001.2,0030.16,0013.52,0011.21
2022-03-04 05:10:00,,0822.5,4.99,0.00,29.8,29.0,00.0,38.8,31.6,11.9,0000.6,0029.89,0013.52,0011.22
2022-03-04 05:11:00,,0822.6,5.00,0.00,29.8,29.0,00.0,38.8,31.6,11.9,0000.9,0029.42,0013.49,0011.25
2022-03-04 05:12:00,,0822.6,5.00,0.00,29.8,29.0,00.0,38.8,31.6,11.9,0001.5,0028.69,0013.55,0011.30
2022-03-04 05:13:00,,0822.6,5.01,0.00,29.8,29.0,00.0,38.8,31.6,11.9,0001.7,0029.57,0013.66,0011.33
2022-03-04 05:14:00,,0822.6,4.98,0.00,29.8,29.0,00.0,38.8,31.6,11.9,0001.7,0030.03,0013.66,0011.37
2022-03-04 05:15:00,,0822.6,5.02,0.00,29.8,29.0,00.0,38.8,31.6,11.9,0001.6,0030.09,0013.70,0011.40
2022-03-04 05:16:00,,0822.7,4.98,0.00,29.8,28.9,00.0,38.8,31.6,12.0,0001.9,0029.81,0013.73,0011.42
2022-03-04 05:17:00,,0822.7,5.02,0.00,29.8,28.9,00.0,38.8,31.6,12.0,0002.3,0029.63,0013.74,0011.44
2022-03-04 05:18:00,,0822.6,4.99,0.00,29.8,28.9,00.0,38.8,31.6,12.0,0003.1,0027.51,0013.66,0011.44
2022-03-04 05:19:00,,0822.7,5.01,0.00,29.8,28.9,00.0,38.8,31.5,12.0,0002.8,0027.61,0013.64,0011.43
2022-03-04 05:20:00,,0822.7,4.98,0.00,29.8,28.9,00.0,38.8,31.5,12.0,0002.3,0028.24,0013.67,0011.47
2022-03-04 05:21:00,,0822.7,5.02,0.00,29.8,28.9,00.0,38.8,31.5,12.0,0002.7,0029.02,0013.73,0011.49
2022-03-04 05:22:00,,0822.7,4.98,0.00,29.8,28.9,00.0,38.8,31.5,12.0,0003.0,0030.21,0013.76,0011.51
2022-03-04 05:23:00,,0822.7,5.00,0.00,29.8,28.9,00.0,38.8,31.5,12.0,0002.6,0030.50,0013.73,0011.50
2022-03-04 05:24:00,,0822.7,5.00,0.00,29.8,28.9,00.0,38.8,31.5,12.0,0001.7,0029.39,0013.66,0011.50
2022-03-04 05:25:00,,0822.7,5.00,0.00,29.8,28.9,00.0,38.8,31.5,12.1,0001.7,0027.95,0013.62,0011.48
2022-03-04 05:26:00,,0822.7,5.03,0.00,29.8,28.9,00.0,38.8,31.5,12.1,0002.1,0028.00,0013.59,0011.45
2022-03-04 05:27:00,,0822.7,4.98,0.00,29.8,28.9,00.0,38.8,31.5,12.1,0002.0,0028.40,0013.58,0011.41
2022-03-04 05:28:00,,0822.6,5.02,0.00,29.8,28.9,00.0,38.8,31.5,12.1,0001.7,0028.71,0013.57,0011.40
2022-03-04 05:29:00,,0822.6,4.99,0.00,29.7,28.8,00.0,38.7,31.5,12.1,0001.4,0029.55,0013.56,0011.36
2022-03-04 05:30:00,,0822.5,5.00,0.00,29.7,28.8,00.0,38.7,31.5,12.1,0001.3,0030.51,0013.56,0011.34
2022-03-04 05:31:00,,0822.5,5.00,0.00,29.7,28.8,00.0,38.7,31.5,12.1,0001.0,0029.65,0013.49,0011.30
2022-03-04 05:32:00,,0822.5,5.00,0.00,29.7,28.8,00.0,38.7,31.5,12.1,0001.0,0029.33,0013.47,0011.25
2022-03-04 05:33:00,,0822.5,5.01,0.00,29.7,28.8,00.0,38.7,31.5,12.2,0001.0,0028.36,0013.52,0011.23
2022-03-04 05:34:00,,0822.6,4.99,0.00,29.7,28.8,00.0,38.7,31.4,12.2,0000.8,0028.32,0013.54,0011.21
2022-03-04 05:35:00,,0822.5,4.99,0.00,29.7,28.8,00.0,38.7,31.4,12.2,0000.9,0028.11,0013.53,0011.17
2022-03-04 05:36:00,,0822.5,5.01,0.00,29.7,28.7,00.0,38.7,31.4,12.2,0000.9,0028.46,0013.58,0011.17
2022-03-04 05:37:00,,0822.5,4.99,0.00,29.7,28.7,00.0,38.7,31.4,12.2,0000.7,0029.02,0013.66,0011.21
2022-03-04 05:38:00,,0822.5,5.01,0.00,29.6,28.7,00.0,38.7,31.3,12.3,0000.8,0029.47,0013.63,0011.22
2022-03-04 05:39:00,,0822.5,4.99,0.00,29.6,28.7,00.0,38.7,31.3,12.3,0001.0,0030.53,0013.64,0011.22
2022-03-04 05:40:00,,0822.5,5.00,0.00,29.6,28.7,00.0,38.6,31.3,12.3,0000.7,0030.19,0013.68,0011.24
2022-03-04 05:41:00,,0822.5,5.00,0.00,29.6,28.7,00.0,38.6,31.3,12.3,0000.7,0029.87,0013.68,0011.25
2022-03-04 05:42:00,,0822.4,5.00,0.00,29.6,28.7,00.0,38.6,31.3,12.3,0001.2,0029.83,0013.72,0011.28
2022-03-04 05:43:00,,0822.5,5.01,0.00,29.6,28.7,00.0,38.6,31.3,12.3,0001.8,0029.86,0013.72,0011.31
2022-03-04 05:44:00,,0822.5,5.00,0.00,29.6,28.7,00.0,38.6,31.3,12.3,0001.6,0030.30,0013.65,0011.33
2022-03-04 05:45:00,,0822.5,5.00,0.00,29.6,28.7,00.0,38.6,31.3,12.3,0001.9,0030.68,0013.70,0011.36
2022-03-04 05:46:00,,0822.5,5.00,0.00,29.6,28.7,00.0,38.6,31.3,12.3,0002.0,0030.47,0013.72,0011.39
2022-03-04 05:47:00,,0822.4,5.00,0.00,29.6,28.7,00.0,38.6,31.3,12.3,0002.4,0030.97,0013.68,0011.40
2022-03-04 05:48:00,,0822.5,4.99,0.00,29.6,28.7,00.0,38.6,31.3,12.3,0002.6,0031.68,0013.64,0011.39
2022-03-04 05:49:00,,0822.4,5.02,0.00,29.6,28.7,00.0,38.6,31.3,12.3,0002.5,0030.91,0013.65,0011.38
2022-03-04 05:50:00,,0822.5,5.00,0.00,29.6,28.7,00.0,38.6,31.3,12.3,0002.2,0030.45,0013.69,0011.39
2022-03-04 05:51:00,,0822.4,5.00,0.00,29.6,28.7,00.0,38.6,31.3,12.3,0002.5,0030.44,0013.63,0011.39
2022-03-04 05:52:00,,0822.5,5.02,0.00,29.6,28.7,00.0,38.6,31.3,12.3,0002.9,0029.79,0013.60,0011.38
2022-03-04 05:53:00,,0822.4,4.98,0.00,29.6,28.7,00.0,38.6,31.3,12.3,0002.9,0030.77,0013.63,0011.37
2022-03-04 05:54:00,,0822.3,5.02,0.00,29.6,28.7,00.0,38.6,31.3,12.3,0002.5,0031.04,0013.71,0011.36
2022-03-04 05:55:00,,0822.3,5.00,0.00,29.5,28.7,00.0,38.6,31.3,12.3,0002.7,0031.00,0013.74,0011.34
2022-03-04 05:56:00,,0822.4,5.00,0.00,29.5,28.7,00.0,38.6,31.3,12.3,0002.1,0030.77,0013.63,0011.28
2022-03-04 05:57:00,,0822.3,5.00,0.00,29.5,28.7,00.0,38.6,31.3,12.3,0001.6,0030.59,0013.57,0011.22
2022-03-04 05:58:00,,0822.3,5.01,0.00,29.5,28.7,00.0,38.5,31.3,12.3,0000.9,0030.04,0013.50,0011.17
2022-03-04 05:59:00,,0822.3,5.00,0.00,29.5,28.7,00.0,38.5,31.2,12.3,0000.8,0029.10,0013.46,0011.12
